This is the latest recevied weather packets stored in our database for station/object KE4AMH. If no packets are shown the sender has not sent any weather packets the latest 10 day(s).
| Time | Temp. | Humidity | Pressure | Rain* | Wind** | Luminosity | Snow |
|---|---|---|---|---|---|---|---|
| 1778166499 | 18.89° C | 99% | 1010.7 hPa | 0 mm | - | 340 W/m² | - |
| 1778166195 | 18.33° C | 99% | 1010.5 hPa | 0 mm | - | 217 W/m² | - |
| 1778165891 | 18.33° C | 99% | 1010.9 hPa | 0 mm | - | 184 W/m² | - |
| 1778165588 | 18.33° C | 99% | 1010.8 hPa | 0 mm | - | 158 W/m² | - |
| 1778165285 | 18.33° C | 99% | 1010.9 hPa | 0 mm | - | 111 W/m² | - |
| 1778164982 | 17.78° C | 99% | 1011 hPa | 1.27 mm | - | 87 W/m² | - |
| 1778164679 | 17.78° C | 99% | 1011 hPa | 1.27 mm | - | 60 W/m² | - |
| 1778164376 | 17.78° C | 99% | 1011.4 hPa | 0 mm | - | 39 W/m² | - |
| 1778164072 | 17.78° C | 99% | 1011.1 hPa | 0 mm | - | 39 W/m² | - |
| 1778163769 | 17.78° C | 99% | 1010.8 hPa | 0 mm | - | 61 W/m² | - |
| 1778163465 | 17.78° C | 99% | 1010.6 hPa | 0 mm | - | 66 W/m² | - |
| 1778163162 | 17.78° C | 99% | 1010.7 hPa | 0 mm | - | 65 W/m² | - |
| 1778162858 | 17.78° C | 99% | 1010.3 hPa | 0 mm | - | 121 W/m² | - |
| 1778162556 | 17.78° C | 99% | 1010.3 hPa | 0 mm | - | 120 W/m² | - |
| 1778162253 | 17.78° C | 99% | 1010.1 hPa | 0 mm | - | 61 W/m² | - |
| 1778161950 | 17.78° C | 99% | 1010.1 hPa | 0 mm | - | 66 W/m² | - |
| 1778161646 | 17.78° C | 99% | 1010.6 hPa | 0 mm | - | 61 W/m² | - |
| 1778161343 | 17.78° C | 99% | 1010.5 hPa | 0 mm | - | 91 W/m² | - |
| 1778161039 | 17.78° C | 99% | 1010.6 hPa | 0 mm | - | 99 W/m² | - |
| 1778160736 | 17.78° C | 99% | 1010.4 hPa | 0 mm | - | 60 W/m² | - |
| 1778160433 | 17.78° C | 99% | 1010.3 hPa | 0.51 mm | - | 51 W/m² | - |
| 1778160129 | 17.78° C | 99% | 1010.3 hPa | 0.51 mm | - | 61 W/m² | - |
| 1778159826 | 17.78° C | 99% | 1010.6 hPa | 1.78 mm | - | 55 W/m² | - |
| 1778159524 | 17.22° C | 99% | 1010.1 hPa | 2.29 mm | - | 23 W/m² | - |
| 1778159220 | 17.22° C | 99% | 1011 hPa | 3.05 mm | - | 17 W/m² | - |
* Rain latest hour (hover to see other rain measurements)
** Current wind speed in m/s (hover to see current wind gust speed)